Time,TemperatureF,DewpointF,PressureIn,WindDirection,WindDirectionDegrees,WindSpeedMPH,WindSpeedGustMPH,Humidity,HourlyPrecipIn,Conditions,Clouds,dailyrainin,SoftwareType,DateUTC
2015-08-30 00:03:00,77.0,51.0,-100.00,NE,52,3.0,8.0,41,-99.99,,,-99.99,,2015-08-30 07:03:00,
2015-08-30 00:12:00,77.0,51.0,-100.00,NE,52,3.0,8.0,41,-99.99,,,-99.99,,2015-08-30 07:12:00,
2015-08-30 00:53:00,75.0,50.0,-100.00,NE,55,2.0,6.0,42,-99.99,,,-99.99,,2015-08-30 07:53:00,
2015-08-30 01:03:00,75.0,50.0,-100.00,NE,55,2.0,6.0,42,-99.99,,,-99.99,,2015-08-30 08:03:00,
2015-08-30 01:12:00,75.0,50.0,-100.00,NE,55,2.0,6.0,42,-99.99,,,-99.99,,2015-08-30 08:12:00,
2015-08-30 01:44:00,74.0,51.0,-100.00,North,-9999,0.0,8.0,44,-99.99,,,-99.99,,2015-08-30 08:44:00,
2015-08-30 01:53:00,74.0,51.0,-100.00,North,-9999,0.0,8.0,44,-99.99,,,-99.99,,2015-08-30 08:53:00,
2015-08-30 02:03:00,74.0,51.0,-100.00,North,-9999,0.0,8.0,44,-99.99,,,-99.99,,2015-08-30 09:03:00,
2015-08-30 02:12:00,74.0,51.0,-100.00,North,-9999,0.0,8.0,44,-99.99,,,-99.99,,2015-08-30 09:12:00,
2015-08-30 02:44:00,74.0,51.0,-100.00,NE,52,2.0,4.0,44,-99.99,,,-99.99,,2015-08-30 09:44:00,
2015-08-30 02:53:00,74.0,51.0,-100.00,NE,52,2.0,4.0,44,-99.99,,,-99.99,,2015-08-30 09:53:00,
2015-08-30 03:03:00,74.0,51.0,-100.00,NE,52,2.0,4.0,44,-99.99,,,-99.99,,2015-08-30 10:03:00,
2015-08-30 03:13:00,74.0,51.0,-100.00,NE,52,2.0,-999.0,44,-99.99,,,-99.99,,2015-08-30 10:13:00,
2015-08-30 03:44:00,72.0,49.0,-100.00,NE,54,2.0,6.0,44,-99.99,,,-99.99,,2015-08-30 10:44:00,
2015-08-30 03:54:00,72.0,49.0,-100.00,NE,54,2.0,6.0,44,-99.99,,,-99.99,,2015-08-30 10:54:00,
2015-08-30 04:03:00,72.0,49.0,-100.00,NE,54,2.0,6.0,44,-99.99,,,-99.99,,2015-08-30 11:03:00,
2015-08-30 04:13:00,72.0,49.0,-100.00,NE,54,2.0,6.0,44,-99.99,,,-99.99,,2015-08-30 11:13:00,
2015-08-30 04:44:00,72.0,49.0,-100.00,NE,52,1.0,4.0,44,-99.99,,,-99.99,,2015-08-30 11:44:00,
2015-08-30 04:54:00,72.0,49.0,-100.00,NE,52,1.0,4.0,44,-99.99,,,-99.99,,2015-08-30 11:54:00,
2015-08-30 05:03:00,72.0,49.0,-100.00,NE,52,1.0,4.0,44,-99.99,,,-99.99,,2015-08-30 12:03:00,
2015-08-30 05:12:00,72.0,49.0,-100.00,NE,52,1.0,4.0,44,-99.99,,,-99.99,,2015-08-30 12:12:00,